Wind_Speed
15 14 11 7 3 4 0 4 2 8 5 4 11 2 9 11 5 8 29 22 23 22 24 20 22 21 22 22 22 22 20 18 15 15 14 13 12 13 11 11 11 11 11 11 10 9 8 8 9
15 10 5 4 4 2 5 3 5 6 8 10 10 7 8 6 4 12 19 31 26 23 21 21 23 22 21 22 22 20 17 16 15 14 14 13 12 11 11 11 11 10 9 9 9 8 7 7 7
14 6 4 3 3 3 4 4 6 9 10 6 4 6 4 5 14 21 25 29 25 22 19 22 23 23 21 20 19 17 16 15 14 13 13 12 12 11 11 11 9 8 8 8 8 7 6 6 6
12 5 4 4 5 7 7 6 9 10 6 3 8 10 8 7 17 19 33 29 27 22 23 22 22 21 19 18 17 16 15 14 13 12 11 11 10 10 10 10 9 8 8 7 7 7 7 6 5
6 4 5 6 6 4 6 9 6 4 3 7 5 7 9 11 17 33 29 28 26 25 23 21 21 20 18 17 16 15 15 14 13 11 10 9 8 9 10 10 9 8 8 9 8 8 8 6 5
5 3 6 2 6 4 8 10 5 5 8 7 8 14 5 16 28 28 29 27 26 25 25 21 19 18 17 15 15 14 12 12 12 10 9 8 8 8 9 8 8 7 7 8 9 8 8 6 5
7 5 3 1 5 6 9 8 4 7 9 9 16 11 10 20 27 27 28 26 25 25 24 21 18 16 15 14 13 12 11 10 9 9 8 8 8 8 7 7 7 6 6 5 6 7 6 6 6
3 4 7 4 5 11 10 7 7 8 7 14 12 7 14 25 29 28 26 25 24 25 23 21 18 16 14 12 11 10 10 9 8 8 7 7 8 8 8 8 6 6 6 5 5 5 5 6 7
4 6 7 4 4 10 12 10 7 7 12 7 5 9 24 31 28 28 28 24 20 24 23 22 20 17 14 12 10 9 9 9 8 7 7 6 5 5 5 5 6 4 5 4 4 5 5 6 7
8 8 2 5 1 5 11 8 11 9 13 11 8 17 31 33 27 28 28 25 24 25 24 22 20 18 15 12 11 10 8 8 7 6 5 4 3 2 2 3 3 3 2 1 1 3 6 3 7
8 5 1 3 3 3 11 9 8 9 11 13 15 23 28 31 27 27 27 26 27 26 24 23 20 18 16 13 11 10 9 8 7 6 4 3 1 1 0 1 3 2 1 2 1 1 3 4 4
8 10 5 4 5 1 5 8 9 10 6 14 17 25 28 26 25 28 27 26 25 25 24 22 20 18 16 13 12 10 10 9 8 7 5 3 2 2 1 1 2 1 2 3 2 3 3 2 3
16 8 7 9 8 6 6 9 7 10 6 16 20 24 25 24 27 27 26 26 25 25 24 22 20 19 17 14 12 11 10 10 9 7 6 4 3 2 1 1 1 1 1 1 2 1 1 1 2
9 14 9 8 8 5 9 8 9 10 9 17 21 24 24 24 27 26 26 26 26 24 24 22 21 20 17 15 13 12 11 10 9 8 7 6 5 3 1 1 1 0 1 3 4 4 1 1 2
12 10 11 12 11 7 8 11 12 15 15 18 21 21 23 23 28 27 28 26 26 25 24 23 22 21 19 17 15 13 12 11 11 10 9 8 7 5 2 0 2 1 1 2 2 2 1 3 1
14 15 14 16 14 8 14 11 16 17 17 19 21 21 22 23 27 28 28 27 27 25 24 23 22 22 20 18 16 15 13 13 12 11 9 9 9 7 5 3 2 1 1 0 1 1 4 1 1
13 14 19 11 16 9 15 9 16 19 19 19 21 22 21 22 25 29 29 28 27 27 25 24 23 22 21 19 17 16 15 14 13 12 11 10 10 10 9 6 3 2 2 1 1 2 3 2 1
17 18 16 16 15 13 15 15 6 19 19 19 20 21 22 23 25 29 30 29 28 27 26 24 24 23 22 19 18 17 17 16 15 14 13 10 11 11 11 10 7 4 1 2 1 2 0 1 2
13 12 18 15 9 13 16 15 12 14 18 19 20 21 22 23 24 29 30 29 28 27 28 27 27 26 24 23 21 20 20 18 17 16 14 11 10 11 11 10 8 7 4 3 2 3 4 1 1
22 17 19 13 7 9 16 15 13 13 19 20 20 21 22 21 22 27 31 31 32 31 31 29 29 27 28 24 24 21 20 19 19 17 15 13 10 10 10 11 9 8 4 4 5 4 2 1 1
23 23 18 15 11 14 13 15 15 11 15 18 20 21 20 22 23 24 29 34 33 33 32 31 29 28 27 25 22 19 18 18 19 19 18 16 14 12 12 11 12 9 6 5 4 5 4 1 1
25 24 18 16 12 13 15 15 19 20 17 18 20 20 23 24 24 23 26 32 34 35 34 33 30 28 26 26 24 25 25 21 22 20 19 18 17 15 14 12 9 12 9 7 5 5 6 4 3
21 17 18 21 18 17 21 10 16 12 18 19 20 22 23 25 25 25 26 36 38 36 35 33 31 30 29 28 29 26 25 25 19 20 17 19 18 18 17 15 13 13 12 10 7 7 7 6 5
11 18 15 15 17 19 24 20 17 17 18 18 20 21 23 23 25 25 33 34 34 35 33 32 32 33 32 31 31 28 26 26 22 20 18 17 17 19 19 18 16 15 14 11 10 10 9 8 6
23 20 11 14 17 20 19 21 20 9 17 20 19 21 23 23 24 25 25 26 33 35 36 35 34 33 34 34 32 34 32 28 26 21 21 18 18 18 18 19 20 18 16 13 12 12 11 11 10
29 25 13 20 15 18 18 17 22 22 21 7 18 18 20 22 22 24 27 31 34 37 37 36 34 34 34 35 36 35 34 32 30 27 26 22 21 19 17 19 21 20 17 15 15 13 12 12 12
25 27 25 17 9 9 15 19 16 13 18 23 20 17 20 20 22 24 26 34 36 36 36 39 39 37 36 38 37 36 35 35 32 30 27 27 23 21 19 20 22 21 19 18 16 16 15 15 15
19 24 22 17 22 20 13 18 13 18 23 19 22 23 19 20 22 23 23 31 37 39 40 40 40 39 42 41 38 36 36 35 36 31 31 28 27 27 22 22 23 22 21 20 20 19 18 18 17
22 18 23 17 17 13 14 13 16 17 17 22 21 20 21 21 20 22 23 30 35 36 37 39 39 40 39 38 39 36 37 37 36 36 35 34 31 28 28 26 24 24 23 22 23 22 21 21 20
27 24 27 14 23 20 15 10 8 5 12 18 18 19 20 18 18 18 19 23 28 33 36 39 40 40 40 39 38 39 38 37 37 38 38 36 35 33 32 29 28 27 26 25 25 25 25 25 24
Wind_Direction
160 161 176 190 231 243 212 88 17 116 115 52 131 24 98 36 28 94 150 159 143 140 141 140 138 136 135 137 140 138 135 134 130 118 111 106 100 93 92 91 87 83 82 90 99 106 106 106 98
162 166 223 256 259 250 92 90 114 71 98 114 117 124 136 74 97 128 139 153 149 141 143 140 138 137 139 139 139 135 129 128 122 118 113 105 97 93 90 86 83 86 88 93 93 94 97 97 96
160 183 265 268 235 23 84 73 84 102 131 143 108 52 72 89 122 144 147 152 150 142 142 141 137 137 137 137 135 130 127 125 121 116 109 104 99 97 91 85 84 88 88 91 93 97 105 105 96
173 205 234 260 85 89 53 106 117 128 123 138 127 103 87 111 134 138 148 155 147 144 141 143 140 139 136 134 132 129 126 124 120 115 112 105 101 97 86 80 80 87 91 87 89 91 87 89 92
238 225 251 238 88 90 67 122 153 113 104 148 162 109 101 127 135 141 149 154 150 147 145 146 144 142 137 134 136 133 130 126 121 118 116 111 104 92 86 81 79 83 83 87 85 80 87 88 90
227 260 248 223 80 100 97 134 143 88 113 116 132 125 105 137 143 148 154 156 151 149 150 151 151 144 138 141 136 131 131 128 125 124 123 115 108 99 91 86 84 83 81 83 85 82 86 87 82
264 266 293 268 94 132 128 146 152 122 139 130 136 129 126 145 152 151 157 156 154 154 153 156 155 150 146 147 138 136 131 128 129 131 126 119 111 101 92 86 90 88 87 85 82 79 79 79 82
251 262 237 161 85 105 133 145 117 139 100 122 138 160 156 155 156 156 158 158 158 158 159 161 161 159 157 155 150 141 140 141 139 136 132 124 105 95 82 77 73 92 90 81 75 73 74 84 81
207 241 231 135 191 118 146 134 125 102 138 162 159 150 147 156 157 158 160 159 159 165 168 169 168 168 165 162 165 154 158 159 153 133 137 99 124 100 89 109 92 91 92 80 75 82 75 102 90
225 263 115 45 47 157 162 164 144 150 152 146 134 116 146 157 163 168 164 165 169 172 174 175 175 174 171 169 168 169 173 170 174 165 164 136 129 126 114 104 109 105 105 45 34 73 91 106 149
192 255 129 187 198 254 162 176 149 146 174 164 152 148 156 161 173 175 172 174 175 174 178 179 181 182 181 177 175 180 183 184 191 190 178 184 174 135 254 154 150 146 100 222 94 51 60 67 77
236 238 263 118 129 276 203 157 174 176 96 156 154 160 160 168 175 177 178 179 178 178 182 183 185 188 188 183 184 188 190 191 195 196 203 204 210 169 138 97 122 149 61 53 19 72 51 86 100
227 238 223 231 255 268 209 195 190 182 137 146 152 165 170 174 178 180 183 181 182 181 184 186 187 190 191 188 190 197 201 201 205 206 208 210 210 216 256 43 170 54 33 124 65 68 349 81 76
184 237 250 258 243 222 192 176 186 167 154 149 161 171 177 181 181 181 186 186 187 186 188 188 191 193 193 194 193 198 203 208 215 215 214 221 218 220 217 243 186 317 1 18 33 23 59 72 63
240 234 219 235 229 177 205 170 200 146 164 161 168 176 182 187 185 187 189 190 190 191 190 193 194 196 197 199 201 204 207 210 215 219 223 224 224 230 199 241 251 310 356 56 52 17 346 128 65
218 223 230 211 198 185 204 210 185 163 173 173 172 177 183 190 191 191 192 193 192 195 194 197 199 199 200 200 201 206 210 213 217 217 220 228 229 234 247 248 243 287 259 234 251 283 218 83 123
203 211 215 167 191 176 207 225 156 175 184 180 181 179 185 190 196 194 195 197 195 196 197 200 202 202 202 201 202 206 209 213 218 218 218 225 232 233 234 244 252 249 294 153 213 230 27 114 123
203 219 205 210 189 204 208 243 169 179 201 192 190 185 187 193 197 195 197 198 199 198 201 203 204 205 204 204 205 210 213 216 216 217 224 233 240 238 236 243 233 235 170 245 283 288 248 356 352
234 216 223 205 168 219 232 237 233 192 204 203 189 196 194 197 193 196 198 199 200 201 201 203 204 205 202 203 204 208 211 212 214 216 223 237 238 235 230 238 225 231 225 254 223 221 220 222 357
229 227 227 222 183 240 250 238 235 195 210 210 196 202 203 193 192 195 197 199 201 202 204 204 206 206 206 205 207 209 212 214 215 219 224 226 227 223 226 234 234 217 252 216 219 221 242 295 130
224 222 223 231 206 237 255 252 242 215 205 211 210 206 203 200 196 193 196 200 200 202 204 205 206 207 209 209 206 207 215 219 216 220 222 221 220 223 230 238 234 224 230 242 215 225 234 263 214
220 222 242 241 230 237 198 252 222 217 203 209 210 207 199 205 199 194 197 201 201 204 205 207 206 208 210 207 207 206 208 212 219 219 223 224 225 228 232 241 239 230 234 246 243 238 232 222 208
229 220 221 235 245 255 249 248 253 207 216 210 211 206 207 198 200 200 197 200 203 203 204 207 207 209 209 207 210 208 214 217 220 223 223 222 226 228 232 234 228 225 224 226 227 214 216 221 254
213 227 224 232 236 240 238 243 246 239 213 221 211 212 208 205 203 203 202 202 205 204 204 204 205 208 208 207 209 212 213 215 216 217 220 225 226 228 230 228 234 228 224 224 220 213 212 217 223
203 199 199 215 223 237 233 233 235 248 235 215 222 208 209 203 203 201 203 201 202 203 205 206 204 205 205 208 210 212 215 214 219 218 220 227 226 228 229 223 220 222 221 222 215 210 212 211 213
199 207 209 212 219 228 216 239 237 233 234 261 229 211 204 203 206 203 201 203 203 204 203 205 203 206 206 207 210 211 213 219 224 227 231 229 231 229 225 219 217 220 222 222 215 215 213 216 217
197 216 222 250 217 265 230 218 245 249 229 223 216 218 212 201 202 206 205 205 205 204 205 203 203 204 205 208 208 211 213 215 220 225 225 230 229 228 222 219 218 218 219 218 218 224 221 215 213
210 203 216 226 240 242 233 238 233 214 219 223 220 217 209 207 203 206 207 207 208 206 206 204 205 205 204 207 209 212 214 216 216 218 220 222 225 223 222 217 218 217 218 221 218 224 224 218 217
201 208 217 224 223 227 237 242 226 231 216 219 219 215 216 210 202 204 208 209 209 211 208 209 208 209 207 207 210 211 213 215 217 218 219 219 220 219 218 214 215 218 220 218 217 221 223 219 218
204 205 203 213 211 237 266 244 122 238 228 218 222 218 219 214 210 208 209 208 207 210 213 209 210 211 212 209 207 208 209 211 214 215 216 217 217 217 217 215 213 215 218 219 218 220 222 220 218
Height
788 790 791 792 803 787 777 772 753 761 762 755 757 762 778 781 792 806 810 812 816 820 821 825 826 828 830 831 833 834 836 838 839 841 842 843 844 845 845 846 846 846 847 847 848 848 849 849 849
788 790 790 777 792 784 776 756 760 755 758 757 762 766 771 792 792 801 806 813 817 820 823 826 828 830 832 833 835 837 839 840 842 843 845 846 847 847 847 847 847 848 848 848 849 850 850 850 850
789 789 782 787 782 778 774 757 758 758 758 761 768 764 773 792 794 800 806 813 816 821 824 827 829 831 834 835 837 840 841 843 844 846 847 848 849 849 849 849 849 849 850 850 850 851 851 851 852
786 787 780 791 763 761 757 755 756 761 761 762 763 779 784 788 794 798 808 812 816 821 825 828 831 833 835 838 840 841 843 845 846 847 849 850 850 851 851 851 851 852 852 852 852 852 853 853 853
784 776 775 774 761 754 748 751 753 759 763 766 766 787 795 797 797 803 809 812 816 821 826 830 832 834 837 840 841 843 845 846 848 849 850 851 852 852 852 853 854 854 854 853 854 855 855 854 854
775 772 772 761 761 752 750 750 753 758 764 770 775 789 799 798 801 805 809 812 816 821 826 831 834 836 839 841 843 844 846 847 849 851 852 852 853 853 854 854 855 855 855 855 855 856 856 855 855
777 776 767 762 762 755 755 747 754 759 767 771 770 786 795 799 802 806 809 813 816 822 827 832 835 838 840 842 844 846 847 848 850 851 852 853 854 855 855 855 856 856 856 857 857 857 857 857 856
771 772 761 752 755 760 749 749 750 757 766 766 770 788 794 796 801 806 810 814 817 822 828 832 836 839 841 844 845 846 848 849 850 852 853 853 855 855 856 855 856 857 857 857 858 858 857 857 857
768 773 759 753 754 751 744 753 751 754 766 767 770 772 783 796 802 806 810 815 819 822 827 832 835 839 841 844 846 847 848 850 851 852 853 854 855 856 856 857 857 857 858 858 857 858 858 857 857
766 757 750 742 742 741 744 746 754 760 768 771 773 775 788 796 803 805 807 814 819 821 826 830 834 838 841 843 846 848 850 851 852 853 854 855 856 857 857 858 858 858 858 858 858 857 857 855 855
757 755 743 741 740 736 741 745 745 756 769 766 774 779 786 794 802 803 806 811 815 820 825 829 834 838 840 842 846 848 849 850 852 854 855 856 857 857 857 858 857 858 858 857 857 858 856 857 856
761 749 742 739 738 738 742 737 749 753 754 754 767 777 783 790 795 799 804 809 814 820 824 829 834 837 840 842 845 846 848 850 851 853 855 856 857 857 857 856 859 859 858 859 859 858 859 858 858
757 744 739 736 736 735 734 744 745 752 750 754 766 777 783 788 793 798 804 809 814 819 824 828 832 836 839 841 844 846 848 850 851 853 855 856 856 857 858 859 858 859 858 859 860 860 860 859 858
737 743 738 733 733 732 739 743 745 747 751 757 766 774 780 785 789 796 801 807 812 818 822 826 831 834 838 840 843 846 848 849 851 852 854 855 856 857 857 858 857 858 858 859 860 860 859 860 859
739 751 740 735 731 733 731 750 751 742 751 759 765 772 777 782 787 792 798 804 810 816 820 824 829 833 836 839 841 844 847 848 850 851 852 853 854 855 855 856 857 857 859 861 861 861 860 860 860
748 744 752 727 728 727 735 747 736 739 749 758 763 768 773 779 784 789 795 801 807 813 818 823 826 829 833 836 839 842 844 846 848 849 850 851 853 854 856 856 855 857 859 860 860 860 860 859 859
740 749 745 735 721 726 736 740 725 732 743 751 758 762 768 774 780 785 791 798 803 809 815 820 824 826 830 834 837 840 842 843 845 846 848 849 851 853 854 854 854 856 857 858 859 859 858 859 859
743 746 729 735 728 727 735 735 725 726 736 742 752 756 761 766 771 779 786 793 799 805 811 817 820 824 827 831 834 837 839 840 842 844 846 847 848 850 852 852 853 854 856 857 858 858 858 858 858
726 735 736 726 714 729 731 729 725 722 732 736 745 750 753 757 765 774 782 788 794 800 805 810 815 819 823 826 829 832 834 836 839 841 843 845 846 847 849 850 851 853 855 856 857 858 859 857 858
734 742 737 721 717 731 728 727 718 714 724 727 734 743 745 751 757 767 775 781 786 792 798 804 809 814 818 820 824 827 831 832 835 838 840 842 843 844 846 847 850 851 851 854 855 857 856 856 857
738 736 734 734 723 722 729 734 723 717 717 719 722 726 738 743 750 759 767 772 779 785 792 798 804 809 814 817 821 825 828 830 831 833 835 838 840 842 843 846 848 849 851 851 853 854 856 853 857
739 726 730 733 742 747 719 748 717 711 718 718 718 721 726 736 741 748 758 765 771 776 784 791 798 804 808 813 816 818 820 822 825 828 830 833 837 839 841 843 845 847 848 849 851 852 853 853 853
727 714 730 734 739 740 731 744 718 699 714 714 712 712 716 722 729 736 745 754 760 769 776 784 791 797 801 806 810 813 817 818 821 824 826 829 832 834 837 840 842 844 845 846 848 850 850 852 851
713 722 728 733 735 750 728 730 719 707 707 701 699 703 707 711 719 728 735 746 755 762 770 777 783 788 794 799 803 807 810 814 816 819 822 825 827 830 832 835 838 840 842 843 845 847 849 850 851
714 726 746 756 746 737 708 721 710 688 680 688 689 691 697 702 708 717 728 736 745 753 760 767 773 779 785 791 795 799 804 809 812 814 817 819 821 823 826 830 833 836 838 840 842 843 845 847 848
709 709 718 745 730 723 704 717 697 675 674 676 676 676 685 694 701 707 717 726 734 742 750 758 764 771 777 782 786 790 796 803 806 809 811 813 816 817 821 825 828 831 834 836 838 839 841 843 845
700 708 688 698 695 714 691 689 679 671 672 673 676 676 676 683 690 699 705 715 724 733 740 746 753 760 767 771 777 782 787 792 797 801 804 808 811 812 816 819 822 825 828 831 833 835 836 838 840
675 685 711 698 729 732 703 698 691 676 678 671 671 670 670 671 679 687 695 702 711 719 727 736 744 748 751 759 767 772 778 783 788 793 796 799 802 806 809 813 816 820 823 825 828 830 832 834 836
683 686 687 685 693 711 718 691 651 663 663 667 662 660 661 662 669 676 683 691 699 708 718 726 734 739 745 752 756 763 767 773 778 782 786 789 794 798 802 806 810 814 817 820 822 824 826 828 830
660 673 676 694 707 694 690 680 645 651 650 654 656 654 654 655 659 667 673 683 691 698 705 712 720 728 734 740 746 750 756 761 766 769 775 780 784 789 794 798 802 806 809 813 815 817 819 821 824